Home   Weather   Greenwich Borough   Past weeks
Flag for United Kingdom

Past Weather in Greenwich Borough, England, United Kingdom — Yesterday and Last 2 Weeks

Now
52 °F

Light rain. Partly sunny.


Feels Like: 49 °F
Forecast: 59 / 46 °F
Wind: 8 mph from North

Location: Biggin Hill Airport

Current Time: Oct 21, 2019 at 4:25:34 pm

Latest Report: Oct 21, 2019 at 3:20 pm


Visibility: 5 mi

Pressure: 30.09 "Hg

Humidity: 94%

Dew Point: 50 °F

Location of Greenwich BoroughLocation

Past Weather in Greenwich Borough — Graph

°F

Greenwich Borough Temperature Yesterday

Maximum temperature yesterday: 50 °F (at 1:50 pm)
Minimum temperature yesterday: 45 °F (at 9:20 am)
Average temperature yesterday: 48 °F

High & Low Weather Summary for the Past Weeks

 TemperatureHumidityPressure
High61 °F (Oct 13, 10:50 am)100% (Oct 7, 10:20 am)30.09 "Hg (Oct 7, 10:20 am)
Low32 °F (Oct 7, 10:20 pm)63% (Oct 9, 1:20 pm)29.45 "Hg (Oct 18, 6:20 am)
Average53 °F89%29.74 "Hg
* Reported Oct 6 2:20 pm — Oct 21 2:50 pm, Greenwich Borough. Weather by CustomWeather, © 2019

Note: Actual official high and low records may vary slightly from our data, if they occured in-between our weather recording intervals... More about our weather records

Advertising

Greenwich Borough Weather History for the Previous 24 Hours

Scroll right to see more
 ConditionsComfort  
Time TempWeatherWind HumidityBarometerVisibility
2:50 pm
Mon, Oct 21
52 °FLight rain. Partly sunny.10 mph94%30.09 "HgN/A
2:20 pm52 °FLight rain. Partly sunny.14 mph94%30.09 "HgN/A
1:50 pm52 °FPartly sunny.14 mph88%30.09 "HgN/A
1:20 pm52 °FPartly sunny.16 mph94%30.07 "HgN/A
12:50 pm52 °FPartly sunny.16 mph94%30.07 "HgN/A
12:20 pm52 °FPartly sunny.14 mph94%30.07 "HgN/A
11:50 am50 °FPartly sunny.16 mph100%30.07 "HgN/A
11:20 am50 °FPartly sunny.13 mph100%30.04 "HgN/A
10:50 am50 °FLight rain. Partly sunny.14 mph100%30.04 "Hg6 mi
10:20 am50 °FLight rain. Partly sunny.13 mph100%30.04 "Hg4 mi
9:50 am52 °FLight rain. Partly sunny.14 mph94%30.04 "Hg4 mi
9:20 am52 °FLight rain. Partly sunny.13 mph94%30.04 "Hg4 mi
8:50 am52 °FLight rain. Partly sunny.12 mph94%30.01 "Hg4 mi
8:20 am52 °FLight rain. Partly sunny.12 mph94%30.01 "Hg3 mi
7:50 am52 °FRain. Partly sunny.13 mph94%29.98 "Hg3 mi
7:20 am52 °FRain. Passing clouds.12 mph94%29.98 "Hg4 mi
6:50 am52 °FRain. Passing clouds.10 mph94%29.98 "HgN/A
6:20 am52 °FLight rain. Passing clouds.13 mph94%29.95 "HgN/A
9:20 pm
Sun, Oct 20
48 °FPassing clouds.12 mph94%29.92 "HgN/A
8:50 pm48 °FPassing clouds.12 mph94%29.92 "HgN/A
8:20 pm48 °FPassing clouds.12 mph94%29.92 "HgN/A
7:50 pm48 °FPassing clouds.10 mph94%29.92 "HgN/A
7:20 pm48 °FPassing clouds.13 mph94%29.89 "HgN/A
6:50 pm48 °FPassing clouds.13 mph94%29.89 "HgN/A
6:20 pm48 °FPassing clouds.12 mph87%29.89 "HgN/A
5:50 pm48 °FPartly sunny.10 mph87%29.89 "HgN/A
5:20 pm48 °FPartly sunny.10 mph87%29.86 "HgN/A
4:50 pm50 °FPartly sunny.10 mph82%29.86 "HgN/A
4:20 pm50 °FPartly sunny.9 mph82%29.86 "HgN/A
Weather by CustomWeather, © 2019

See weather overview